Location: ??????
(55.6130°N, 37.7882°E)
Time: 13:41:56
(UTC+00:00)

ATLAS 3B R/B - Pass Details

Date: 14 April 2024
Orbit: 943 x 1251 km, 63.8° (Epoch: 18 May)

Event Time Altitude Azimuth Distance (km) Brightness Sun altitude
Rises 00:20:44 0° 301° (WNW) 4,101 5.6 -15.8°
Reaches altitude 10° 00:23:31 10° 305° (NW) 3,168 5.1 -15.5°
Maximum altitude 00:31:08 60° 25° (NNE) 1,408 3.6 -14.7°
Drops below altitude 10° 00:38:55 10° 105° (ESE) 3,227 5.7 -13.9°
Sets 00:41:45 0° 109° (ESE) 4,182 6.2 -13.6°
